This is the latest recevied weather packets stored in our database for station/object SV9TNF-57. If no packets are shown the sender has not sent any weather packets the latest 10 day(s).
| Time | Temp. | Humidity | Pressure | Rain* | Wind** | Luminosity | Snow |
|---|---|---|---|---|---|---|---|
| 1788010912 | 27.22° C | 54% | 996.4 hPa | 0 mm | 6.26 m/s, 335° | - | - |
| 1788010612 | 27.22° C | 54% | 996.2 hPa | 0 mm | 3.58 m/s, 354° | - | - |
| 1788010312 | 27.22° C | 53% | 996.4 hPa | 0 mm | 2.68 m/s, 349° | - | - |
| 1788010011 | 27.22° C | 52% | 996.5 hPa | 0 mm | 0.89 m/s, 304° | - | - |
| 1788009712 | 26.67° C | 53% | 996.6 hPa | 0 mm | 11.62 m/s, 352° | - | - |
| 1788009411 | 27.22° C | 51% | 996.4 hPa | 0 mm | 13.86 m/s, 310° | - | - |
| 1788009111 | 26.67° C | 54% | 996.4 hPa | 0 mm | 9.83 m/s, 323° | - | - |
| 1788008811 | 27.22° C | 54% | 996.3 hPa | 0 mm | 12.07 m/s, 285° | - | - |
| 1788008511 | 26.67° C | 54% | 996.8 hPa | 0 mm | 4.92 m/s, 275° | - | - |
| 1788008211 | 27.22° C | 54% | 996.8 hPa | 0 mm | 5.36 m/s, 0° | - | - |
| 1788007911 | 27.22° C | 55% | 996.8 hPa | 0 mm | 2.24 m/s, 174° | - | - |
| 1788007611 | 26.67° C | 53% | 996.8 hPa | 0 mm | 3.13 m/s, 272° | - | - |
| 1788007310 | 27.22° C | 52% | 997 hPa | 0 mm | 8.05 m/s, 298° | - | - |
| 1788007010 | 27.22° C | 51% | 997 hPa | 0 mm | 10.28 m/s, 270° | - | - |
| 1788006710 | 26.67° C | 53% | 997.2 hPa | 0 mm | 1.79 m/s, 317° | - | - |
| 1788006410 | 26.67° C | 52% | 997 hPa | 0 mm | 7.15 m/s, 18° | - | - |
| 1788006110 | 27.22° C | 50% | 996.9 hPa | 0 mm | 6.71 m/s, 342° | - | - |
| 1788005810 | 27.22° C | 51% | 997.2 hPa | 0 mm | 6.71 m/s, 352° | - | - |
| 1788005510 | 27.22° C | 51% | 996.8 hPa | 0 mm | 7.15 m/s, 266° | - | - |
| 1788005210 | 26.67° C | 54% | 996.9 hPa | 0 mm | 3.58 m/s, 313° | - | - |
| 1788004910 | 26.67° C | 54% | 997.2 hPa | 0 mm | 10.28 m/s, 356° | - | - |
| 1788004610 | 26.67° C | 55% | 996.9 hPa | 0 mm | 1.34 m/s, 356° | - | - |
| 1788004310 | 26.67° C | 54% | 997 hPa | 0 mm | 6.71 m/s, 84° | - | - |
| 1788004009 | 26.67° C | 56% | 996.7 hPa | 0 mm | 4.92 m/s, 41° | - | - |
| 1788003709 | 26.67° C | 57% | 996.7 hPa | 0 mm | 4.47 m/s, 339° | - | - |
* Rain latest hour (hover to see other rain measurements)
** Current wind speed in m/s (hover to see current wind gust speed)